TITAN 3C TRANSTAGE DEB, 33513

Orbit data source: Space-Track

TITAN 3C TRANSTAGE DEB, 33513 is space debris in GEO originally from a launch on Thu, 26 Sep 1968 UTC launched from the Air Force Eastern Test Range (AFETR). Debris objects in space refer to the collection of defunct objects orbiting the Earth. Examples of debris include non-operational satellites, rocket bodies, and fragments generated from explosions, collisions, or faulty payload assembly.

Not visible in the next 10 days
Identifier
33513, 1968-081P
Orbit
GEO
Country
Flag of USUS
Related business
Manufacturer
Unknown
Mission
Spacecraft
Bus & Motor
Unknown
Mass
Unknown
Launch date (UTC)
1968-09-26 (57 years ago)
Launch vehicle
Unknown
Launch site
Air Force Eastern Test Range (AFETR)
Object type
Payload
Rocket body
Debris
Shape & HBR
Unknown shape, 1.1 m
Radar Cross Section
Medium (>0.1 m² and <1 m²)

Expand to show TLE details & history
Last TLE update: 1 day ago

TLE from 1 day ago
0 TITAN 3C TRANSTAGE DEB
1 33513U 68081P   25346.86518284 -.00000301  00000-0  00000-0 0  9995
2 33513   1.6724  44.3267 0086419 287.5207 152.4978  1.01397652 45988
Epoch: 2025-12-12T20:45Z
TLE epoch observation values (Epoch: 2025-12-12T20:45:51.797Z)
Latitude
1.66042°
Longitude
91.51967°
Altitude
35,793.839 km
Speed
3.063 km/s
True Right ascension
08h 19m 08s
True Declination
1° 39' 31"
Sunlit
Object was in daylight at epoch
Visualization orbit readout
Latitude
Unknown
Longitude
Unknown
Altitude
Unknown
Speed
Unknown
Apparent Right ascension
Unknown
Apparent Declination
Unknown
Sunlit
N/A
Visualization observer readout
Local Sidereal Time
01:43:16
Azimuth
Unknown
Elevation
Unknown
Doppler factor
Unknown
Orbital elements
Apogee altitude
35,836.665 km
Perigee altitude
35,113.284 km
Semi-major axis
41,853.111 km
Eccentricity
0.00864
Inclination
1.6724°
RAAN
44.3267°
Arg. of periapsis
287.5207°
True anomaly
152.95075°
Mean anomaly
152.4978°
Eccentric anomaly
152.72471°
Mean motion
0.25348 °/min
Orbital period
1,420.2 mins
BSTAR
0
Loading maneuver chart data...
Computing Atmospheric mass density...

Documentation

Showing up to 5 results
|